Location: Oriwa
(40.7500°S, 175.3333°E)
Time: 13:16:24
(UTC+00:00)

ALOS - Pass Details

Date: 03 February 2023
Orbit: 679 x 682 km, 98.0° (Epoch: 30 March)

Event Time Altitude Azimuth Distance (km) Brightness Sun altitude
Exits shadow 16:02:12 14° 263° (W) 1,905 4.1 -15.0°
Drops below altitude 10° 16:04:05 10° 239° (WSW) 2,147 4.6 -14.7°
Sets 16:07:28 0° 214° (SSW) 3,074 5.7 -14.2°
